Retour au catalogue

TIANHUI 4B

ActifSciencePO
NORAD 50573·PAYLOAD·🇨🇳 China

Lancé Dec 29, 2021 depuis Jiuquan Satellite Launch Center

Loading…

Prochains Passages (prochaines 24 heures)

TLE

FraisSource: Space-Track

Époque: Sep 14, 2026, 10:16 UTC

1 50573U 21134B   26257.42791234  .00004667  00000-0  89873-4 0  9997
2 50573  88.9684 309.9944 0010667  81.9150 278.3320 15.47560939263631

Suivez TIANHUI 4B en temps réel avec AllMySat

Download on the App Store